Location: Unspecified
(50.7693°N, 0.0000°E)
Time: 16:17:13
(UTC+00:00)

SR - Pass Details

Date: 27 June 2019
Orbit: 578 x 878 km, 66.7° (Epoch: 21 August)

Event Time Altitude Azimuth Distance (km) Brightness Sun altitude
Rises 02:24:27 0° 199° (SSW) 2,782 - -9.6°
Reaches altitude 10° 02:26:42 10° 194° (SSW) 1,888 - -9.4°
Exits shadow 02:26:52 11° 193° (SSW) 1,823 ? -9.4°
Maximum altitude 02:30:44 48° 120° (ESE) 777 ? -9.0°
Drops below altitude 10° 02:34:56 10° 46° (NE) 1,962 ? -8.7°
Sets 02:37:18 0° 41° (NE) 2,905 ? -8.5°
